THORAD DELTA 1 DEB, 8173

Orbit data source: Space-Track

THORAD DELTA 1 DEB, 8173 is space debris in SSO originally from a launch on Fri, 15 Nov 1974 UTC launched from the Air Force Western Test Range (AFWTR). Debris objects in space refer to the collection of defunct objects orbiting the Earth. Examples of debris include non-operational satellites, rocket bodies, and fragments generated from explosions, collisions, or faulty payload assembly.

Loading next visibility...
Identifier
8173, 1974-089AP
Orbit
SSO
Country
Flag of USUS
Related business
Manufacturer
Unknown
Mission
Spacecraft
Bus & Motor
Unknown
Mass
Unknown
Launch date (UTC)
1974-11-15 (52 years ago)
Launch vehicle
Unknown
Launch site
Air Force Western Test Range (AFWTR)
Object type
Payload
Rocket body
Debris
Shape & HBR
Unknown shape, 0.1 m
Radar Cross Section
Small (<0.1 m²)

Expand to show TLE details & history
Last TLE update: 4 days ago

TLE from 4 days ago
0 THORAD DELTA 1 DEB
1 08173U 74089AP  26137.90002346  .00000042  00000-0  55516-3 0  9991
2 08173 101.9929 120.1884 0108080 183.9700 203.7512 12.51890981351206
Epoch: 2026-05-17T21:36Z
TLE epoch observation values (Epoch: 2026-05-17T21:36:02.026Z)
Latitude
26.62193°
Longitude
-85.49852°
Altitude
1,537.199 km
Speed
7.065 km/s
True Right ascension
07h 36m 25s
True Declination
26° 29' 53"
Sunlit
Object was in daylight at epoch
Visualization orbit readout
Latitude
Unknown
Longitude
Unknown
Altitude
Unknown
Speed
Unknown
Apparent Right ascension
Unknown
Apparent Declination
Unknown
Sunlit
N/A
Visualization observer readout
Local Sidereal Time
19:42:58
Azimuth
Unknown
Elevation
Unknown
Doppler factor
Unknown
Orbital elements
Apogee altitude
1,538.805 km
Perigee altitude
1,369.502 km
Semi-major axis
7,832.291 km
Eccentricity
0.01081
Inclination
101.9929°
RAAN
120.1884°
Arg. of periapsis
183.97°
True anomaly
203.25847°
Mean anomaly
203.7512°
Eccentric anomaly
203.50423°
Mean motion
3.13119 °/min
Orbital period
114.97 mins
BSTAR
0.00055516
Loading maneuver chart data...
Computing Atmospheric mass density...
Loading historical data...
Loading historical data...
Loading historical data...
Loading historical data...
Loading historical data...
Loading historical data...
Loading historical data...

Documentation

Showing up to 5 results
|